This is the latest recevied weather packets stored in our database for station/object DM1RG-6. If no packets are shown the sender has not sent any weather packets the latest 10 day(s).
| Time | Temp. | Humidity | Pressure | Rain* | Wind** | Luminosity | Snow |
|---|---|---|---|---|---|---|---|
| 1777790884 | 18.89° C | 50% | 1013.2 hPa | 0 mm | - | - | - |
| 1777790523 | 18.33° C | 50% | 1013.3 hPa | 0 mm | - | - | - |
| 1777790163 | 18.33° C | 51% | 1013.2 hPa | 0 mm | - | - | - |
| 1777789803 | 18.33° C | 50% | 1013.1 hPa | 0 mm | - | - | - |
| 1777789443 | 18.33° C | 52% | 1013.2 hPa | 0 mm | - | - | - |
| 1777789083 | 17.78° C | 51% | 1013.4 hPa | 0 mm | - | - | - |
| 1777788724 | 17.78° C | 51% | 1013.2 hPa | 0 mm | - | - | - |
| 1777788364 | 17.78° C | 51% | 1013.2 hPa | 0 mm | - | - | - |
| 1777788003 | 17.22° C | 54% | 1013.1 hPa | 0 mm | - | - | - |
| 1777787644 | 16.67° C | 54% | 1013.2 hPa | 0 mm | - | - | - |
| 1777787284 | 16.11° C | 55% | 1012.9 hPa | 0 mm | - | - | - |
| 1777786923 | 16.11° C | 55% | 1013.3 hPa | 0 mm | - | - | - |
| 1777786564 | 16.11° C | 56% | 1013.3 hPa | 0 mm | - | - | - |
| 1777786203 | 16.11° C | 56% | 1013 hPa | 0 mm | - | - | - |
| 1777785843 | 15.56° C | 56% | 1012.9 hPa | 0 mm | - | - | - |
| 1777785483 | 15.56° C | 57% | 1013 hPa | 0 mm | - | - | - |
| 1777785123 | 15° C | 58% | 1013.1 hPa | 0 mm | - | - | - |
| 1777784763 | 15° C | 59% | 1013 hPa | 0 mm | - | - | - |
| 1777784403 | 15° C | 58% | 1013.4 hPa | 0 mm | - | - | - |
| 1777784044 | 14.44° C | 60% | 1013.1 hPa | 0 mm | - | - | - |
| 1777783684 | 14.44° C | 59% | 1013.1 hPa | 0 mm | - | - | - |
| 1777783323 | 13.89° C | 60% | 1013.1 hPa | 0 mm | - | - | - |
| 1777782964 | 13.89° C | 60% | 1013.1 hPa | 0 mm | - | - | - |
| 1777782603 | 13.33° C | 64% | 1013.1 hPa | 0 mm | - | - | - |
| 1777782244 | 12.78° C | 64% | 1013.3 hPa | 0 mm | - | - | - |
* Rain latest hour (hover to see other rain measurements)
** Current wind speed in m/s (hover to see current wind gust speed)